This is the latest recevied weather packets stored in our database for station/object K1ZK-13. If no packets are shown the sender has not sent any weather packets the latest 10 day(s).
| Time | Temp. | Humidity | Pressure | Rain* | Wind** | Luminosity | Snow |
|---|---|---|---|---|---|---|---|
| 1777481337 | 18.89° C | 57% | 1011.5 hPa | 0 mm | - | 358 W/m² | - |
| 1777481034 | 18.89° C | 57% | 1011.6 hPa | 0 mm | - | 358 W/m² | - |
| 1777480427 | 17.78° C | 55% | 1011.9 hPa | 0 mm | - | 391 W/m² | - |
| 1777480123 | 17.78° C | 55% | 1012.1 hPa | 0 mm | - | 391 W/m² | - |
| 1777479819 | 17.78° C | 57% | 1012 hPa | 0 mm | - | 373 W/m² | - |
| 1777479517 | 17.78° C | 56% | 1012.2 hPa | 0 mm | - | 455 W/m² | - |
| 1777479213 | 17.78° C | 56% | 1012.2 hPa | 0 mm | - | 455 W/m² | - |
| 1777478910 | 18.89° C | 56% | 1012.4 hPa | 0 mm | - | 380 W/m² | - |
| 1777478606 | 18.33° C | 58% | 1012.3 hPa | 0 mm | - | 494 W/m² | - |
| 1777478304 | 18.33° C | 57% | 1012.4 hPa | 0 mm | - | 397 W/m² | - |
| 1777478001 | 18.33° C | 57% | 1012.6 hPa | 0 mm | - | 726 W/m² | - |
| 1777477695 | 18.89° C | 56% | 1012.6 hPa | 0 mm | - | 656 W/m² | - |
| 1777477392 | 18.89° C | 55% | 1012.6 hPa | 0 mm | - | 660 W/m² | - |
| 1777477089 | 17.22° C | 57% | 1012.6 hPa | 0 mm | - | 542 W/m² | - |
| 1777476787 | 16.67° C | 59% | 1012.8 hPa | 0 mm | - | 267 W/m² | - |
| 1777476483 | 16.67° C | 57% | 1012.7 hPa | 0 mm | - | 233 W/m² | - |
| 1777476180 | 17.78° C | 54% | 1012.8 hPa | 0 mm | - | 278 W/m² | - |
| 1777475875 | 17.78° C | 54% | 1013 hPa | 0 mm | - | 641 W/m² | - |
| 1777475572 | 17.22° C | 54% | 1013.1 hPa | 0 mm | - | 502 W/m² | - |
| 1777475268 | 16.67° C | 56% | 1013.1 hPa | 0 mm | - | 449 W/m² | - |
| 1777474963 | 16.67° C | 55% | 1012.9 hPa | 0 mm | - | 276 W/m² | - |
| 1777474659 | 16.67° C | 53% | 1013.2 hPa | 0 mm | - | 409 W/m² | - |
| 1777474357 | 17.22° C | 53% | 1013.2 hPa | 0 mm | - | 359 W/m² | - |
| 1777474052 | 17.22° C | 55% | 1013.3 hPa | 0 mm | - | 597 W/m² | - |
| 1777473751 | 16.67° C | 53% | 1013.3 hPa | 0 mm | - | 581 W/m² | - |
* Rain latest hour (hover to see other rain measurements)
** Current wind speed in m/s (hover to see current wind gust speed)